[[{"header":{"parameterUnit":"m.s-1","parameterCategory":2,"la1":30.2992,"la2":30.254,"lo1":-89.0895,"lo2":-89.0443,"dy":0.0025,"dx":0.0025,"nx":19,"ny":19,"refTime":"2026-03-08T09:00:00:Z","depth":"0","parameterNumber":2,"parameterNumberName":"U-component_of_CURRENTS"},"data":[0,0,0,-0.1237,-0.1238,-0.1316,-0.1316,-0.1369,-0.1369,0,0,0,0,0,0,0,0,0,0,0,-0.1204,-0.1204,-0.1237,-0.1239,-0.1316,-0.1317,-0.1369,-0.1369,0,0,0,0,0,0,0,0,0,0,0,-0.1204,-0.1204,-0.1205,-0.1239,-0.1316,-0.1317,-0.1369,-0.1322,0,0,0,0,0,0,0,0,0,0,-0.1252,-0.1215,-0.1204,-0.1205,-0.1239,-0.1316,-0.1317,-0.132,-0.1324,-0.1321,0,-0.1332,0,-0.1355,-0.1372,-0.1372,0,0,0,-0.1237,-0.1211,-0.1247,-0.1205,-0.124,-0.1316,-0.1281,-0.1323,-0.1328,-0.1327,-0.1333,-0.1336,-0.1356,-0.1372,-0.1372,-0.139,-0.139,0,0,-0.1233,-0.1204,-0.1244,-0.125,-0.1259,-0.1278,-0.1283,-0.1326,-0.1321,-0.1334,-0.1338,-0.1356,-0.1372,-0.1373,-0.139,-0.139,0,0,0,-0.1222,-0.12,-0.1236,-0.1248,-0.1267,-0.1281,-0.1286,-0.1319,-0.1335,-0.1338,-0.1357,-0.1373,-0.1373,-0.139,-0.139,-0.1373,0,0,0,-0.1219,-0.1195,-0.1234,-0.1215,-0.1267,-0.1297,-0.1277,-0.1332,-0.1338,-0.1357,-0.1373,-0.1373,-0.139,-0.139,-0.1373,-0.1377,0,0,0,-0.1201,-0.1192,-0.1205,-0.1214,-0.1251,-0.1298,-0.1316,-0.1334,-0.1349,-0.1372,-0.1374,-0.139,-0.139,-0.1374,-0.1378,-0.1388,0,0,0,-0.1164,-0.1177,-0.1203,-0.1218,-0.125,-0.1288,-0.1316,-0.1333,-0.1348,-0.1373,-0.139,-0.139,-0.1374,-0.1378,-0.1388,-0.1385,-0.1384,0,0,-0.1162,-0.1175,-0.1186,-0.1213,-0.1244,-0.1278,-0.13,-0.1327,-0.1345,-0.1373,-0.1374,-0.1373,-0.1378,-0.1388,-0.1372,-0.1372,0,0,0,-0.1174,-0.1184,-0.1196,-0.1221,-0.1253,-0.1284,-0.1312,-0.1326,-0.1351,-0.1355,-0.1373,-0.1377,-0.1384,-0.1383,-0.1382,-0.1395,-0.1389,-0.1389,-0.1389,-0.1144,-0.1171,-0.1188,-0.1226,-0.1243,-0.1282,-0.1304,-0.1329,-0.1338,-0.1342,-0.1363,-0.1359,-0.1356,-0.1356,-0.1369,-0.1356,-0.1356,-0.1356,-0.1356,-0.1153,-0.1175,-0.1189,-0.1217,-0.1245,-0.1263,-0.1304,-0.1316,-0.1348,-0.1351,-0.1358,-0.1364,-0.1355,-0.1369,-0.1355,-0.1355,-0.1356,-0.1356,-0.1356,-0.1158,-0.1171,-0.1184,-0.121,-0.1229,-0.1258,-0.1288,-0.1314,-0.1339,-0.1347,-0.1357,-0.1357,-0.1372,-0.1349,-0.1349,-0.1349,-0.1349,-0.1349,-0.1349,-0.1162,-0.1176,-0.1182,-0.1204,-0.1211,-0.123,-0.1282,-0.131,-0.134,-0.1349,-0.1349,-0.1371,-0.1358,-0.1361,-0.135,-0.135,-0.135,-0.135,-0.135,-0.1184,-0.1176,-0.1186,-0.1189,-0.1198,-0.1203,-0.1261,-0.1318,-0.1349,-0.1362,-0.1369,-0.1353,-0.1365,-0.1365,-0.1369,-0.1361,-0.1361,-0.1361,-0.1361,-0.1184,-0.1186,-0.1182,-0.1177,-0.1179,-0.1188,-0.1231,-0.1294,-0.1355,-0.1363,-0.1381,-0.1375,-0.1374,-0.1386,-0.1386,-0.139,-0.1388,-0.1388,-0.1388,-0.1186,-0.1182,-0.1176,-0.1167,-0.1165,-0.1166,-0.1191,-0.1273,-0.1352,-0.1391,-0.14,-0.1399,-0.1391,-0.1388,-0.1408,-0.1407,-0.1414,0,0]},{"header":{"parameterUnit":"m.s-1","parameterCategory":2,"la1":30.2992,"la2":30.254,"lo1":-89.0895,"lo2":-89.0443,"dy":0.0025,"dx":0.0025,"nx":19,"ny":19,"refTime":"2026-03-08T09:00:00:Z","depth":"0","parameterNumber":3,"parameterNumberName":"V-component_of_CURRENTS"},"data":[0,0,0,-0.0735,-0.0733,-0.0561,-0.056,-0.0307,-0.0305,0,0,0,0,0,0,0,0,0,0,0,-0.0792,-0.0791,-0.0736,-0.0733,-0.0561,-0.056,-0.0307,-0.0305,0,0,0,0,0,0,0,0,0,0,0,-0.0792,-0.0791,-0.079,-0.0732,-0.0561,-0.056,-0.0308,-0.0438,0,0,0,0,0,0,0,0,0,0,-0.0606,-0.0688,-0.0791,-0.079,-0.0731,-0.0562,-0.056,-0.0445,-0.043,-0.0385,0,-0.0374,0,-0.0347,-0.029,-0.0289,0,0,0,-0.0702,-0.07,-0.0646,-0.079,-0.073,-0.0562,-0.063,-0.0437,-0.042,-0.0366,-0.037,-0.0361,-0.0343,-0.0289,-0.0288,-0.0137,-0.0137,0,0,-0.0712,-0.0759,-0.0658,-0.0636,-0.0705,-0.0636,-0.0625,-0.0427,-0.0422,-0.037,-0.0355,-0.0339,-0.0287,-0.0286,-0.0137,-0.0137,0,0,0,-0.0759,-0.0767,-0.0717,-0.0647,-0.0625,-0.0631,-0.0619,-0.0431,-0.0413,-0.0352,-0.0336,-0.0286,-0.0283,-0.0137,-0.0137,-0.0221,0,0,0,-0.0764,-0.0796,-0.0722,-0.0748,-0.063,-0.0535,-0.0628,-0.0426,-0.0403,-0.0337,-0.0286,-0.0281,-0.0136,-0.0137,-0.0219,-0.0255,0,0,0,-0.0796,-0.0799,-0.0784,-0.0751,-0.069,-0.0537,-0.0507,-0.042,-0.0394,-0.0289,-0.028,-0.0136,-0.0137,-0.0217,-0.0251,-0.0237,0,0,0,-0.0842,-0.0831,-0.0786,-0.0764,-0.0692,-0.0602,-0.0508,-0.0425,-0.0345,-0.0285,-0.0136,-0.0137,-0.0216,-0.0249,-0.0235,-0.0317,-0.0332,0,0,-0.0852,-0.0834,-0.0818,-0.0773,-0.0715,-0.0623,-0.0551,-0.041,-0.0327,-0.0194,-0.0189,-0.022,-0.0251,-0.0236,-0.0319,-0.0334,0,0,0,-0.0836,-0.0832,-0.0805,-0.076,-0.068,-0.061,-0.0484,-0.0418,-0.0296,-0.0284,-0.0196,-0.0213,-0.0201,-0.0246,-0.0258,-0.0154,-0.0137,-0.0137,-0.0137,-0.0917,-0.086,-0.0831,-0.0759,-0.0709,-0.0588,-0.052,-0.0405,-0.0325,-0.0292,-0.0265,-0.029,-0.034,-0.0349,-0.0242,-0.0245,-0.0245,-0.0246,-0.0246,-0.0943,-0.0922,-0.0858,-0.0815,-0.0735,-0.067,-0.0531,-0.047,-0.0357,-0.0308,-0.0292,-0.0314,-0.0367,-0.0247,-0.0251,-0.025,-0.0249,-0.0249,-0.0248,-0.1001,-0.0979,-0.0945,-0.0881,-0.0817,-0.0719,-0.0657,-0.0549,-0.0433,-0.0417,-0.0411,-0.041,-0.0316,-0.0394,-0.0395,-0.0395,-0.0395,-0.0395,-0.0395,-0.1071,-0.1025,-0.1014,-0.0946,-0.0907,-0.0857,-0.0723,-0.0663,-0.0568,-0.0499,-0.0499,-0.0316,-0.0334,-0.0341,-0.0397,-0.0396,-0.0396,-0.0396,-0.0396,-0.1121,-0.1104,-0.1091,-0.1064,-0.0989,-0.0979,-0.0871,-0.079,-0.0697,-0.0668,-0.0458,-0.0524,-0.0493,-0.0484,-0.0492,-0.0584,-0.0584,-0.0584,-0.0584,-0.1166,-0.1154,-0.1139,-0.1109,-0.1079,-0.103,-0.1059,-0.0992,-0.0737,-0.0619,-0.0474,-0.046,-0.0457,-0.042,-0.0413,-0.0417,-0.0487,-0.0487,-0.0486,-0.1189,-0.1184,-0.1186,-0.115,-0.1103,-0.1113,-0.1189,-0.1232,-0.0846,-0.0465,-0.031,-0.0315,-0.0273,-0.0276,-0.02,-0.0198,-0.0198,0,0]}],[{"header":{"parameterUnit":"m.s-1","parameterCategory":2,"la1":30.2992,"la2":30.254,"lo1":-89.0895,"lo2":-89.0443,"dy":0.0025,"dx":0.0025,"nx":19,"ny":19,"refTime":"2026-03-08T09:00:00:Z","depth":"2","parameterNumber":2,"parameterNumberName":"U-component_of_CURRENTS"},"data":[0,0,0,-0.1029,-0.103,-0.1055,-0.1055,-0.1022,-0.1021,0,0,0,0,0,0,0,0,0,0,0,-0.102,-0.1021,-0.1029,-0.103,-0.1055,-0.1055,-0.1022,-0.1021,0,0,0,0,0,0,0,0,0,0,0,-0.102,-0.1021,-0.1022,-0.103,-0.1055,-0.1055,-0.1022,-0.1015,0,0,0,0,0,0,0,0,0,0,-0.0997,-0.0988,-0.1021,-0.1022,-0.103,-0.1055,-0.1055,-0.1016,-0.1016,-0.0995,0,-0.1014,0,-0.1022,-0.1019,-0.1019,0,0,0,-0.1015,-0.0988,-0.1015,-0.1022,-0.1031,-0.1056,-0.104,-0.1016,-0.1016,-0.0995,-0.1013,-0.1013,-0.1021,-0.1019,-0.1018,-0.102,-0.102,0,0,-0.1014,-0.1001,-0.1015,-0.1015,-0.1055,-0.1039,-0.1041,-0.1017,-0.1011,-0.1013,-0.1012,-0.1021,-0.1018,-0.1018,-0.102,-0.102,0,0,0,-0.102,-0.1,-0.1027,-0.1016,-0.1029,-0.104,-0.1042,-0.1012,-0.1027,-0.1012,-0.102,-0.1018,-0.1018,-0.1019,-0.102,-0.0998,0,0,0,-0.1018,-0.1005,-0.1027,-0.1016,-0.103,-0.1026,-0.1037,-0.1029,-0.1027,-0.102,-0.1018,-0.1017,-0.1019,-0.102,-0.0998,-0.1007,0,0,0,-0.1016,-0.1003,-0.1017,-0.1016,-0.1036,-0.1027,-0.104,-0.1029,-0.1032,-0.1019,-0.1017,-0.1019,-0.102,-0.0998,-0.1007,-0.106,0,0,0,-0.0987,-0.0972,-0.1017,-0.0973,-0.1036,-0.1,-0.104,-0.0999,-0.0979,-0.1018,-0.1019,-0.102,-0.0998,-0.1007,-0.1059,-0.1063,-0.1069,0,0,-0.0943,-0.0966,-0.0931,-0.0972,-0.0927,-0.0994,-0.0969,-0.0967,-0.0993,-0.1019,-0.1019,-0.0998,-0.1007,-0.1059,-0.1103,-0.1108,0,0,0,-0.0897,-0.0892,-0.0874,-0.0866,-0.0862,-0.0919,-0.0927,-0.0964,-0.1005,-0.0992,-0.1019,-0.1026,-0.1059,-0.106,-0.1064,-0.1023,-0.1023,-0.1023,-0.1023,-0.086,-0.0842,-0.0799,-0.0804,-0.0802,-0.0857,-0.0904,-0.0978,-0.0966,-0.1005,-0.1022,-0.1069,-0.1068,-0.1071,-0.1029,-0.1029,-0.1029,-0.1029,-0.1029,-0.0806,-0.0791,-0.0787,-0.0751,-0.0813,-0.0824,-0.0922,-0.0959,-0.1052,-0.1039,-0.1072,-0.1054,-0.1074,-0.1028,-0.1028,-0.1028,-0.1028,-0.1028,-0.1029,-0.0812,-0.0806,-0.0784,-0.0761,-0.0791,-0.0836,-0.0937,-0.0993,-0.1048,-0.1082,-0.1112,-0.1112,-0.1072,-0.1095,-0.1096,-0.1096,-0.1096,-0.1096,-0.1096,-0.0839,-0.0815,-0.0795,-0.0773,-0.0777,-0.0834,-0.0948,-0.103,-0.1101,-0.1116,-0.1116,-0.1092,-0.109,-0.1078,-0.11,-0.11,-0.1099,-0.1099,-0.1099,-0.0829,-0.0837,-0.0799,-0.0794,-0.0803,-0.0887,-0.0989,-0.1138,-0.1206,-0.1239,-0.1155,-0.1153,-0.1174,-0.1171,-0.1163,-0.1206,-0.1206,-0.1206,-0.1206,-0.0839,-0.0833,-0.0795,-0.0786,-0.0832,-0.0914,-0.1127,-0.1257,-0.1277,-0.1236,-0.1235,-0.1197,-0.1192,-0.1213,-0.1209,-0.12,-0.1254,-0.1254,-0.1254,-0.0816,-0.0814,-0.0788,-0.078,-0.0826,-0.0972,-0.1184,-0.1258,-0.1169,-0.1256,-0.1247,-0.1208,-0.1147,-0.1141,-0.1167,-0.1163,-0.1147,0,0]},{"header":{"parameterUnit":"m.s-1","parameterCategory":2,"la1":30.2992,"la2":30.254,"lo1":-89.0895,"lo2":-89.0443,"dy":0.0025,"dx":0.0025,"nx":19,"ny":19,"refTime":"2026-03-08T09:00:00:Z","depth":"2","parameterNumber":3,"parameterNumberName":"V-component_of_CURRENTS"},"data":[0,0,0,0.031,0.0311,0.0351,0.0351,0.0324,0.0324,0,0,0,0,0,0,0,0,0,0,0,0.0286,0.0286,0.031,0.0311,0.0351,0.0351,0.0325,0.0324,0,0,0,0,0,0,0,0,0,0,0,0.0286,0.0286,0.0286,0.0311,0.0351,0.0351,0.0325,0.0312,0,0,0,0,0,0,0,0,0,0,0.0282,0.0263,0.0286,0.0286,0.0312,0.0351,0.0351,0.0312,0.0313,0.0286,0,0.0292,0,0.0313,0.0321,0.0321,0,0,0,0.0305,0.0262,0.0287,0.0286,0.0312,0.0351,0.0331,0.0313,0.0314,0.0286,0.0292,0.0291,0.0312,0.0321,0.0321,0.0221,0.0221,0,0,0.0303,0.0279,0.0287,0.0287,0.032,0.033,0.0333,0.0314,0.0304,0.0292,0.0291,0.0312,0.032,0.032,0.0222,0.0221,0,0,0,0.03,0.0277,0.0303,0.0287,0.0304,0.0331,0.0334,0.0304,0.0317,0.0291,0.0311,0.032,0.032,0.0223,0.0222,0.0167,0,0,0,0.0299,0.0277,0.0302,0.0286,0.0305,0.0313,0.0324,0.0318,0.0317,0.0312,0.032,0.0319,0.0224,0.0222,0.017,0.0153,0,0,0,0.0284,0.0275,0.0282,0.0285,0.0308,0.0315,0.0326,0.0319,0.0329,0.0321,0.0319,0.0224,0.0223,0.0173,0.0158,0.014,0,0,0,0.0255,0.0269,0.0281,0.0292,0.0308,0.0293,0.0326,0.0313,0.0301,0.032,0.0224,0.0222,0.0174,0.016,0.0142,0.0104,0.0089,0,0,0.0263,0.0269,0.0277,0.029,0.0279,0.0287,0.0233,0.0242,0.0263,0.0225,0.0224,0.0169,0.0158,0.014,0.0001,-0.001,0,0,0,0.0273,0.0276,0.0273,0.027,0.0258,0.0204,0.0206,0.0195,0.0174,0.0251,0.0148,0.0142,0.0134,0.0115,0.0105,0.0213,0.0214,0.0214,0.0214,0.0229,0.0244,0.0231,0.0226,0.0189,0.0139,0.0101,0.0079,0.0106,0.0084,0.0081,0.0009,-0.0015,-0.0022,0.006,0.0059,0.0059,0.0059,0.0059,0.0225,0.0211,0.019,0.019,0.0116,0.0055,-0.0017,-0.001,-0.004,-0.0004,-0.001,0.0037,-0.0035,0.0054,0.0055,0.0056,0.0056,0.0057,0.0057,0.0183,0.0178,0.0188,0.0154,0.0066,-0.0003,-0.0097,-0.0108,-0.0084,-0.0097,-0.0088,-0.0087,-0.0001,-0.0088,-0.0088,-0.0088,-0.0088,-0.0089,-0.0089,0.0132,0.0142,0.0138,0.0107,0.0043,-0.0053,-0.0137,-0.0162,-0.0167,-0.0152,-0.0152,-0.004,-0.0035,-0.001,-0.0091,-0.0091,-0.0091,-0.009,-0.009,0.0094,0.0112,0.01,0.0063,-0.0068,-0.0224,-0.025,-0.0299,-0.0282,-0.028,-0.0184,-0.0181,-0.0159,-0.0152,-0.0129,-0.0237,-0.0237,-0.0237,-0.0237,0.0058,0.0074,0.0044,-0.0039,-0.018,-0.0322,-0.0451,-0.0327,-0.0211,-0.0065,-0.0071,-0.0036,-0.0036,-0.0003,0.0001,0.0029,-0.0037,-0.0036,-0.0035,0.0033,0.0034,-0.0012,-0.007,-0.0255,-0.0447,-0.0579,-0.0338,0.0055,-0.0014,0.0097,-0.0249,-0.0217,-0.021,-0.0172,-0.016,-0.012,0,0]}],[{"header":{"parameterUnit":"m.s-1","parameterCategory":2,"la1":30.2992,"la2":30.254,"lo1":-89.0895,"lo2":-89.0443,"dy":0.0025,"dx":0.0025,"nx":19,"ny":19,"refTime":"2026-03-08T09:00:00:Z","depth":"4","parameterNumber":2,"parameterNumberName":"U-component_of_CURRENTS"},"data":[0,0,0,-0.0613,-0.0615,-0.0738,-0.0738,-0.0941,-0.0943,0,0,0,0,0,0,0,0,0,0,0,-0.0568,-0.0569,-0.0613,-0.0615,-0.0738,-0.0739,-0.0941,-0.0943,0,0,0,0,0,0,0,0,0,0,0,-0.0568,-0.0568,-0.0569,-0.0616,-0.0737,-0.0739,-0.094,-0.0841,0,0,0,0,0,0,0,0,0,0,-0.0719,-0.0672,-0.0568,-0.0569,-0.0616,-0.0737,-0.0739,-0.0836,-0.0848,-0.0892,0,-0.0895,0,-0.0917,-0.0955,-0.0956,0,0,0,-0.0637,-0.0662,-0.0683,-0.0569,-0.0617,-0.0737,-0.0688,-0.0842,-0.0855,-0.0907,-0.0898,-0.0905,-0.092,-0.0956,-0.0957,-0.114,-0.114,0,0,-0.063,-0.061,-0.0674,-0.069,-0.063,-0.0684,-0.0692,-0.085,-0.0863,-0.0899,-0.091,-0.0924,-0.0958,-0.0959,-0.1139,-0.114,0,0,0,-0.0596,-0.0605,-0.0623,-0.0682,-0.0697,-0.0687,-0.0696,-0.0857,-0.0858,-0.0912,-0.0926,-0.0959,-0.0961,-0.1138,-0.1139,-0.1181,0,0,0,-0.0593,-0.0584,-0.0619,-0.0612,-0.0693,-0.0775,-0.0699,-0.0847,-0.0866,-0.0925,-0.0959,-0.0963,-0.1138,-0.1139,-0.1178,-0.1155,0,0,0,-0.0566,-0.0582,-0.0587,-0.061,-0.0652,-0.0772,-0.0784,-0.0852,-0.0874,-0.0956,-0.0963,-0.1137,-0.1139,-0.1176,-0.1153,-0.1124,0,0,0,-0.0556,-0.0559,-0.0586,-0.0618,-0.065,-0.0751,-0.0784,-0.0899,-0.0975,-0.096,-0.1138,-0.1139,-0.1175,-0.1151,-0.1123,-0.093,0,0,0,-0.0552,-0.0559,-0.0582,-0.0609,-0.0681,-0.0737,-0.0841,-0.0961,-0.1006,-0.1091,-0.1096,-0.1179,-0.1153,-0.1124,-0.1015,0,0,0,0,-0.0578,-0.059,-0.0622,-0.0672,-0.0746,-0.0821,-0.0929,-0.0992,-0.1113,-0.105,-0.1196,-0.1177,-0.1157,-0.1045,-0.1146,-0.1146,-0.1146,-0.1146,-0.1145,-0.0546,-0.0596,-0.0643,-0.0707,-0.0774,-0.0911,-0.0987,-0.1087,-0.1146,-0.121,-0.1225,-0.1246,-0.1135,-0.1263,-0.1263,-0.1263,-0.1263,-0.1263,-0.1264,-0.0545,-0.0573,-0.065,-0.074,-0.0829,-0.0949,-0.1054,-0.1128,-0.1226,-0.1269,-0.125,-0.1116,-0.1268,-0.1267,-0.1266,-0.1266,-0.1266,-0.1265,-0.1265,-0.053,-0.0542,-0.0642,-0.0746,-0.0871,-0.0983,-0.1025,-0.116,-0.1234,-0.1258,-0.112,-0.1247,-0.1223,-0.1264,-0.1264,-0.1264,-0.1263,-0.1263,-0.1263,-0.0472,-0.0544,-0.0614,-0.074,-0.0807,-0.0908,-0.1033,-0.1037,-0.1136,-0.111,-0.1265,-0.1244,-0.1244,-0.1222,-0.126,-0.1261,-0.1261,-0.1261,-0.1262,-0.0434,-0.0484,-0.0543,-0.061,-0.0701,-0.0742,-0.085,-0.0871,-0.0866,-0.0843,-0.1014,-0.1027,-0.0973,-0.0979,-0.0945,-0.0902,-0.09,-0.0897,0,-0.0392,-0.0416,-0.0454,-0.0461,-0.0483,-0.0598,-0.0543,-0.0597,-0.0721,-0.0734,-0.085,-0.1045,-0.1054,-0.0994,-0.0995,-0.0954,0,0,0,-0.0355,-0.0373,-0.0353,-0.0371,-0.037,-0.0437,-0.054,-0.0534,-0.0735,-0.0644,-0.0836,-0.0852,-0.0993,-0.1252,-0.1199,-0.1199,-0.1159,0,0]},{"header":{"parameterUnit":"m.s-1","parameterCategory":2,"la1":30.2992,"la2":30.254,"lo1":-89.0895,"lo2":-89.0443,"dy":0.0025,"dx":0.0025,"nx":19,"ny":19,"refTime":"2026-03-08T09:00:00:Z","depth":"4","parameterNumber":3,"parameterNumberName":"V-component_of_CURRENTS"},"data":[0,0,0,-0.0203,-0.0204,-0.0236,-0.0236,-0.0183,-0.0182,0,0,0,0,0,0,0,0,0,0,0,-0.0189,-0.0189,-0.0203,-0.0204,-0.0236,-0.0236,-0.0183,-0.0182,0,0,0,0,0,0,0,0,0,0,0,-0.0188,-0.0189,-0.0189,-0.0205,-0.0236,-0.0236,-0.0183,-0.0179,0,0,0,0,0,0,0,0,0,0,-0.0159,-0.016,-0.0189,-0.0189,-0.0205,-0.0236,-0.0236,-0.018,-0.0179,-0.0145,0,-0.016,0,-0.0175,-0.0177,-0.0177,0,0,0,-0.0191,-0.0161,-0.0176,-0.019,-0.0205,-0.0236,-0.0218,-0.018,-0.0179,-0.0144,-0.016,-0.0159,-0.0174,-0.0177,-0.0177,-0.017,-0.0171,0,0,-0.019,-0.0183,-0.0177,-0.0176,-0.0225,-0.0217,-0.0219,-0.0181,-0.0178,-0.016,-0.0158,-0.0173,-0.0176,-0.0176,-0.017,-0.017,0,0,0,-0.0193,-0.0182,-0.0199,-0.0177,-0.0194,-0.0219,-0.0221,-0.018,-0.0188,-0.0158,-0.0173,-0.0176,-0.0175,-0.0169,-0.017,-0.0246,0,0,0,-0.0192,-0.0185,-0.0198,-0.0193,-0.0195,-0.02,-0.0221,-0.0191,-0.0188,-0.0173,-0.0176,-0.0175,-0.0169,-0.017,-0.0243,-0.0303,0,0,0,-0.0185,-0.0184,-0.0193,-0.0193,-0.0214,-0.0201,-0.0207,-0.0191,-0.0196,-0.0177,-0.0174,-0.0168,-0.0169,-0.024,-0.0297,-0.0267,0,0,0,-0.0168,-0.0215,-0.0193,-0.0245,-0.0214,-0.0265,-0.0208,-0.0227,-0.0219,-0.0176,-0.0169,-0.017,-0.0239,-0.0294,-0.0265,-0.0177,0,0,0,-0.0226,-0.0221,-0.0254,-0.0236,-0.0298,-0.0259,-0.0312,-0.027,-0.0219,-0.0171,-0.0172,-0.0244,-0.0297,-0.0266,-0.024,0,0,0,0,-0.0271,-0.0291,-0.0307,-0.0333,-0.0352,-0.0366,-0.0332,-0.0312,-0.0276,-0.0221,-0.0244,-0.0276,-0.0253,-0.0195,-0.0175,-0.0175,-0.0175,-0.0175,-0.0175,-0.0322,-0.0339,-0.0389,-0.0408,-0.0433,-0.0437,-0.0439,-0.0399,-0.0336,-0.0332,-0.0336,-0.0371,-0.0315,-0.0319,-0.0319,-0.032,-0.032,-0.032,-0.0321,-0.039,-0.0412,-0.0434,-0.0497,-0.0512,-0.055,-0.0527,-0.0494,-0.0456,-0.0414,-0.0386,-0.0281,-0.0328,-0.0327,-0.0325,-0.0325,-0.0324,-0.0323,-0.0323,-0.0396,-0.0412,-0.0463,-0.054,-0.06,-0.0617,-0.0631,-0.0616,-0.0531,-0.0528,-0.0391,-0.0408,-0.0399,-0.0479,-0.0479,-0.0479,-0.0479,-0.0479,-0.0479,-0.0379,-0.0428,-0.0496,-0.0577,-0.0628,-0.0682,-0.0697,-0.0653,-0.0591,-0.0486,-0.0533,-0.0423,-0.0418,-0.0406,-0.0482,-0.0481,-0.0481,-0.0481,-0.0481,-0.0385,-0.041,-0.0502,-0.0565,-0.067,-0.0692,-0.0713,-0.0611,-0.0547,-0.0449,-0.0427,-0.0429,-0.0383,-0.0379,-0.0364,-0.043,-0.0429,-0.0428,0,-0.0373,-0.0393,-0.05,-0.0581,-0.0649,-0.0689,-0.0593,-0.0549,-0.047,-0.0457,-0.0538,-0.0521,-0.0519,-0.0474,-0.0468,-0.0455,0,0,0,-0.0375,-0.0402,-0.0461,-0.0552,-0.0629,-0.0582,-0.0573,-0.052,-0.0485,-0.0393,-0.0406,-0.0412,-0.0469,-0.0489,-0.0422,-0.0416,-0.0393,0,0]}]]